CW8371 Weather Reports


time (UTC)temp
F
wind
direction
speed
knots
gust
knots
rain 1hr
in
rain 24hr
in
rain mn
in
humidity
%
barometer
mb
20210613222506 81 173 0.9 8.7 0.00 0.00 0.00 49 1009.4
20210613222006 81 185 0.9 7.0 0.00 0.00 0.00 49 1009.4
20210613221506 81 176 1.7 10.4 0.00 0.00 0.00 49 1009.5
20210613221005 81 169 1.7 10.4 0.00 0.00 0.00 50 1009.4
20210613220505 81 190 1.7 11.3 0.00 0.00 0.00 49 1009.4
20210613220006 81 203 2.6 11.3 0.00 0.00 0.00 49 1009.4
20210613215505 81 183 2.6 10.4 0.00 0.00 0.00 50 1009.5
20210613215005 82 178 3.5 10.4 0.00 0.00 0.00 49 1009.6
20210613214506 82 211 2.6 10.4 0.00 0.00 0.00 48 1009.5
20210613214005 81 245 1.7 8.7 0.00 0.00 0.00 50 1009.6
20210613213505 81 244 1.7 8.7 0.00 0.00 0.00 50 1009.6
20210613213006 81 239 0.9 8.7 0.00 0.00 0.00 49 1009.5
20210613212506 80 232 0.9 4.3 0.00 0.00 0.00 51 1009.7
20210613212006 79 232 0.9 3.5 0.00 0.00 0.00 51 1009.6
20210613211506 79 232 0.9 3.5 0.00 0.00 0.00 53 1009.7
20210613211006 79 232 0.9 4.3 0.00 0.00 0.00 51 1009.7
20210613210506 79 233 1.7 6.1 0.00 0.00 0.00 51 1009.6
20210613210006 79 234 1.7 7.8 0.00 0.00 0.00 49 1009.7
20210613205506 80 235 0.9 7.8 0.00 0.00 0.00 50 1009.7
20210613205005 80 238 0.9 3.5 0.00 0.00 0.00 50 1009.8
20210613204506 80 243 0.9 7.0 0.00 0.00 0.00 49 1009.8
20210613204006 82 246 0.9 7.0 0.00 0.00 0.00 47 1009.7
20210613203505 82 248 0.9 4.3 0.00 0.00 0.00 50 1009.8
20210613203006 82 241 2.6 12.2 0.00 0.00 0.00 47 1009.8
20210613202506 82 232 2.6 12.2 0.00 0.00 0.00 47 1009.9
20210613202005 82 227 2.6 8.7 0.00 0.00 0.00 47 1009.8
20210613201506 82 229 1.7 8.7 0.00 0.00 0.00 48 1009.7
20210613201005 82 235 1.7 5.2 0.00 0.00 0.00 47 1009.9
20210613200506 83 242 1.7 6.1 0.00 0.00 0.00 47 1009.8
20210613200006 82 235 1.7 7.0 0.00 0.00 0.00 47 1009.8
20210613195506 82 221 2.6 7.8 0.00 0.00 0.00 48 1009.8
20210613195005 83 203 2.6 7.8 0.00 0.00 0.00 47 1009.9
20210613194505 83 181 2.6 10.4 0.00 0.00 0.00 48 1009.9
20210613194006 83 177 1.7 10.4 0.00 0.00 0.00 49 1009.9
20210613193506 82 194 0.9 6.1 0.00 0.00 0.00 47 1009.9
20210613193006 81 201 0.9 6.1 0.00 0.00 0.00 48 1009.9
20210613192505 80 200 2.6 7.8 0.00 0.00 0.00 48 1010.1
20210613192005 81 212 2.6 7.8 0.00 0.00 0.00 48 1009.9
20210613191506 82 240 2.6 9.6 0.00 0.00 0.00 48 1010.1
20210613191006 82 243 2.6 9.6 0.00 0.00 0.00 46 1010.1
20210613190506 82 245 1.7 5.2 0.00 0.00 0.00 47 1010.1
20210613190006 82 250 0.9 4.3 0.00 0.00 0.00 48 1010.0
20210613185506 81 251 1.7 4.3 0.00 0.00 0.00 50 1010.1
20210613184505 81 202 3.5 8.7 0.00 0.00 0.00 48 1010.2
20210613184005 80 179 3.5 8.7 0.00 0.00 0.00 50 1010.2
20210613183505 80 227 2.6 7.0 0.00 0.00 0.00 49 1010.2
20210613183005 80 257 1.7 6.1 0.00 0.00 0.00 49 1010.2
20210613182505 80 205 1.7 3.5 0.00 0.00 0.00 47 1010.2
20210613181504 81 233 1.7 7.8 0.00 0.00 0.00 50 1010.3
20210613181004 82 234 0.9 6.1 0.00 0.00 0.00 49 1010.4
20210613180504 81 236 0.9 7.8 0.00 0.00 0.00 51 1010.3
20210613180005 80 235 1.7 7.8 0.00 0.00 0.00 51 1010.4
20210613175504 80 227 0.9 7.0 0.00 0.00 0.00 51 1010.4
20210613175004 79 223 0.9 6.1 0.00 0.00 0.00 57 1010.5
20210613174504 78 273 1.7 6.1 0.00 0.00 0.00 51 1010.4
20210613174004 78 287 1.7 6.1 0.00 0.00 0.00 53 1010.4
20210613173504 78 288 0.9 4.3 0.00 0.00 0.00 51 1010.7
20210613173004 78 291 0.9 6.1 0.00 0.00 0.00 51 1010.6
20210613172504 78 292 0.9 6.1 0.00 0.00 0.00 48 1010.5
20210613172004 79 270 1.7 10.4 0.00 0.00 0.00 49 1010.6
20210613171504 80 210 1.7 10.4 0.00 0.00 0.00 47 1010.5
20210613171004 80 190 1.7 5.2 0.00 0.00 0.00 48 1010.7
20210613170504 80 215 1.7 5.2 0.00 0.00 0.00 49 1010.7
20210613170005 80 216 1.7 5.2 0.00 0.00 0.00 51 1010.7
20210613165504 80 213 1.7 6.1 0.00 0.00 0.00 51 1010.6
20210613165004 80 234 1.7 6.1 0.00 0.00 0.00 51 1010.6
20210613164504 79 258 1.7 6.1 0.00 0.00 0.00 51 1010.6
20210613164004 78 271 1.7 7.0 0.00 0.00 0.00 52 1010.6
20210613163504 78 269 2.6 9.6 0.00 0.00 0.00 52 1010.7
20210613163004 78 254 3.5 9.6 0.00 0.00 0.00 52 1010.9
20210613162504 79 238 2.6 7.8 0.00 0.00 0.00 48 1010.9
20210613162004 78 237 1.7 7.8 0.00 0.00 0.00 50 1010.9
20210613161504 79 224 0.9 5.2 0.00 0.00 0.00 50 1011.0
20210613161004 80 210 1.7 5.2 0.00 0.00 0.00 51 1010.9
20210613160504 80 203 1.7 7.0 0.00 0.00 0.00 50 1010.9
20210613160004 80 192 1.7 7.0 0.00 0.00 0.00 50 1011.0
20210613155504 78 208 1.7 7.0 0.00 0.00 0.00 53 1011.0
20210613155005 78 222 1.7 7.0 0.00 0.00 0.00 51 1011.1
20210613154505 77 235 2.6 13.9 0.00 0.00 0.00 52 1011.0
20210613154005 77 232 3.5 13.9 0.00 0.00 0.00 50 1011.1
20210613153504 78 224 2.6 8.7 0.00 0.00 0.00 49 1011.1
20210613153004 78 235 1.7 7.0 0.00 0.00 0.00 51 1011.1
20210613152504 78 250 1.7 7.0 0.00 0.00 0.00 53 1011.1
20210613152004 77 257 1.7 7.0 0.00 0.00 0.00 56 1011.2
20210613151504 77 257 0.0 3.5 0.00 0.00 0.00 53 1011.2
20210613151004 77 257 0.9 4.3 0.00 0.00 0.00 56 1011.2
20210613150504 78 257 1.7 6.1 0.00 0.00 0.00 57 1011.2
20210613150004 77 263 1.7 8.7 0.00 0.00 0.00 59 1011.2
20210613145504 77 276 2.6 8.7 0.00 0.00 0.00 56 1011.1
20210613145004 77 286 2.6 8.7 0.00 0.00 0.00 53 1011.1
20210613144504 77 287 2.6 8.7 0.00 0.00 0.00 53 1011.1
20210613144004 76 281 2.6 9.6 0.00 0.00 0.00 59 1011.2
20210613143504 76 275 2.6 9.6 0.00 0.00 0.00 57 1011.1
20210613143004 76 274 0.9 7.0 0.00 0.00 0.00 62 1011.3
20210613142504 76 279 0.0 6.1 0.00 0.00 0.00 62 1011.2
20210613142006 76 0 0.0 0.0 0.00 0.00 0.00 66 1011.2
20210613141504 76 0 0.0 0.0 0.00 0.00 0.00 65 1011.2
20210613141005 75 0 0.0 0.0 0.00 0.00 0.00 66 1011.1
20210613140504 75 0 0.0 0.0 0.00 0.00 0.00 67 1011.2
20210613140004 75 0 0.0 0.0 0.00 0.00 0.00 69 1011.2
20210613135504 74 0 0.0 0.0 0.00 0.00 0.00 71 1011.3
20210613135004 73 0 0.0 0.0 0.00 0.00 0.00 74 1011.2
20210613134504 73 0 0.0 0.0 0.00 0.00 0.00 74 1011.2
20210613134004 72 0 0.0 0.0 0.00 0.00 0.00 75 1011.2
20210613133504 72 0 0.0 0.0 0.00 0.00 0.00 76 1011.3
20210613133004 71 0 0.0 0.0 0.00 0.00 0.00 76 1011.3
20210613132504 71 0 0.0 0.0 0.00 0.00 0.00 78 1011.4
20210613132004 70 0 0.0 0.0 0.00 0.00 0.00 79 1011.5
20210613131504 69 0 0.0 0.0 0.00 0.00 0.00 80 1011.6
20210613131004 68 0 0.0 0.0 0.00 0.00 0.00 82 1011.6
20210613130504 68 0 0.0 0.0 0.00 0.00 0.00 82 1011.6
20210613130004 67 0 0.0 0.0 0.00 0.00 0.00 84 1011.6
20210613125504 66 0 0.0 0.0 0.00 0.00 0.00 86 1011.6
20210613125004 65 0 0.0 0.0 0.00 0.00 0.00 88 1011.6
20210613124504 64 0 0.0 0.0 0.00 0.00 0.00 89 1011.7
20210613124004 63 0 0.0 0.0 0.00 0.00 0.00 90 1011.7
20210613123504 62 0 0.0 0.0 0.00 0.00 0.00 90 1011.6
20210613123005 60 0 0.0 0.0 0.00 0.00 0.00 91 1011.6
20210613122504 59 0 0.0 0.0 0.00 0.00 0.00 92 1011.6
20210613122005 58 0 0.0 0.0 0.00 0.00 0.00 93 1011.6
20210613121504 57 0 0.0 0.0 0.00 0.00 0.00 93 1011.6
20210613121004 57 0 0.0 0.0 0.00 0.00 0.00 93 1011.6
20210613120504 56 0 0.0 0.0 0.00 0.00 0.00 93 1011.6
20210613120004 56 0 0.0 0.0 0.00 0.00 0.00 94 1011.6
20210613115504 56 0 0.0 0.0 0.00 0.00 0.00 94 1011.6
20210613115004 56 0 0.0 0.0 0.00 0.00 0.00 94 1011.6
20210613114504 55 0 0.0 0.0 0.00 0.00 0.00 94 1011.6
20210613114005 54 0 0.0 0.0 0.00 0.00 0.00 94 1011.6
20210613113504 54 0 0.0 0.0 0.00 0.00 0.00 94 1011.7
20210613113005 53 0 0.0 0.0 0.00 0.00 0.00 94 1011.7
20210613112504 53 0 0.0 0.0 0.00 0.00 0.00 94 1011.7
20210613112004 52 0 0.0 0.0 0.00 0.00 0.00 94 1011.7
20210613111504 52 0 0.0 0.0 0.00 0.00 0.00 94 1011.7
20210613111004 52 0 0.0 0.0 0.00 0.00 0.00 94 1011.7
20210613110504 51 0 0.0 0.0 0.00 0.00 0.00 93 1011.8
20210613110005 51 0 0.0 0.0 0.00 0.00 0.00 93 1011.8
20210613105504 51 0 0.0 0.0 0.00 0.00 0.00 94 1011.7
20210613105004 51 0 0.0 0.0 0.00 0.00 0.00 93 1011.6
20210613104504 51 0 0.0 0.0 0.00 0.00 0.00 93 1011.5
20210613104004 51 0 0.0 0.0 0.00 0.00 0.00 93 1011.4
20210613103504 50 0 0.0 0.0 0.00 0.00 0.00 93 1011.4
20210613103005 50 0 0.0 0.0 0.00 0.00 0.00 94 1011.3
20210613102504 50 0 0.0 0.0 0.00 0.00 0.00 93 1011.2
20210613102004 50 0 0.0 0.0 0.00 0.00 0.00 93 1011.2
20210613101504 50 0 0.0 0.0 0.00 0.00 0.00 93 1011.2
20210613101004 49 0 0.0 0.0 0.00 0.00 0.00 93 1011.2
20210613100505 49 0 0.0 0.0 0.00 0.01 0.00 93 1011.1
20210613100005 49 0 0.0 0.0 0.00 0.02 0.00 93 1011.0
20210613095504 49 0 0.0 0.0 0.00 0.03 0.00 93 1010.9
20210613095005 49 0 0.0 0.0 0.00 0.05 0.00 93 1010.9
20210613094504 49 0 0.0 0.0 0.00 0.05 0.00 93 1010.9
20210613094004 49 0 0.0 0.0 0.00 0.07 0.00 93 1010.8
20210613093505 49 0 0.0 0.0 0.00 0.08 0.00 93 1010.7
20210613093005 49 0 0.0 0.0 0.00 0.08 0.00 93 1010.6
20210613092504 50 0 0.0 0.0 0.00 0.08 0.00 93 1010.7
20210613092004 50 0 0.0 0.0 0.00 0.08 0.00 93 1010.7
20210613091504 50 0 0.0 0.0 0.00 0.09 0.00 93 1010.7
20210613091004 50 0 0.0 0.0 0.00 0.09 0.00 93 1010.6
20210613090504 50 0 0.0 0.0 0.00 0.09 0.00 93 1010.7
20210613090005 50 0 0.0 0.0 0.00 0.09 0.00 93 1010.6
20210613085504 50 0 0.0 0.0 0.00 0.09 0.00 93 1010.7
20210613085004 50 0 0.0 0.0 0.00 0.09 0.00 93 1010.7
20210613084505 50 0 0.0 0.0 0.00 0.10 0.00 93 1010.7
20210613084004 50 0 0.0 0.0 0.00 0.11 0.00 93 1010.7
20210613083504 50 0 0.0 0.0 0.00 0.12 0.00 93 1010.8
20210613083004 50 0 0.0 0.0 0.00 0.14 0.00 92 1010.7
20210613082505 50 0 0.0 0.0 0.00 0.16 0.00 92 1010.7
20210613082005 50 0 0.0 0.0 0.00 0.19 0.00 93 1010.6
20210613081504 50 0 0.0 0.0 0.00 0.21 0.00 93 1010.6
20210613081004 51 0 0.0 0.0 0.00 0.23 0.00 93 1010.6
20210613080504 51 0 0.0 0.0 0.00 0.25 0.00 93 1010.5
20210613080004 51 0 0.0 0.0 0.00 0.26 0.00 92 1010.6
20210613075505 51 0 0.0 0.0 0.00 0.27 0.00 92 1010.5
20210613075005 51 0 0.0 0.0 0.00 0.28 0.00 92 1010.5
20210613074504 51 0 0.0 0.0 0.00 0.29 0.00 92 1010.6
20210613074004 51 0 0.0 0.0 0.00 0.30 0.00 92 1010.6
20210613073504 51 0 0.0 0.0 0.00 0.30 0.00 92 1010.6
20210613073004 51 0 0.0 0.0 0.00 0.31 0.00 92 1010.7
20210613072504 51 0 0.0 0.0 0.00 0.31 0.00 92 1010.7
20210613072005 52 0 0.0 0.0 0.00 0.31 0.00 92 1010.7
20210613071504 52 0 0.0 0.0 0.00 0.31 0.00 92 1010.8
20210613071004 52 0 0.0 0.0 0.00 0.32 0.00 92 1010.7
20210613070504 52 0 0.0 0.0 0.00 0.32 0.00 92 1010.7
20210613070005 52 0 0.0 0.0 0.00 0.32 0.00 92 1010.6
20210613065504 52 0 0.0 0.0 0.00 0.33 0.00 92 1010.7
20210613065005 52 0 0.0 0.0 0.00 0.33 0.00 92 1010.7
20210613064505 52 0 0.0 0.0 0.00 0.33 0.00 92 1010.6
20210613064004 52 0 0.0 0.0 0.00 0.33 0.00 92 1010.7
20210613063504 53 0 0.0 0.0 0.00 0.35 0.00 92 1010.7
20210613063005 53 0 0.0 0.0 0.00 0.35 0.00 92 1010.8
20210613062504 53 0 0.0 0.0 0.00 0.36 0.00 92 1010.9
20210613062005 53 0 0.0 0.0 0.00 0.36 0.00 92 1010.9
20210613061505 53 0 0.0 0.0 0.00 0.36 0.00 92 1010.9
20210613061004 53 0 0.0 0.0 0.00 0.37 0.00 91 1010.9
20210613060504 53 0 0.0 0.0 0.00 0.38 0.00 91 1010.9
20210613060004 54 0 0.0 0.0 0.00 0.39 0.00 91 1010.9
20210613055505 54 0 0.0 0.0 0.00 0.39 0.00 91 1010.9
20210613055004 54 0 0.0 0.0 0.00 0.39 0.00 91 1010.8
20210613054505 54 0 0.0 0.0 0.00 0.39 0.00 91 1011.0
20210613054004 54 0 0.0 0.0 0.00 0.39 0.00 91 1010.8
20210613053504 54 0 0.0 0.0 0.00 0.39 0.00 91 1010.6
20210613053004 55 0 0.0 0.0 0.00 0.39 0.00 91 1010.9
20210613052504 55 0 0.0 0.0 0.00 0.39 0.00 91 1010.9
20210613052005 55 0 0.0 0.0 0.00 0.39 0.00 91 1011.0
20210613051504 55 0 0.0 0.0 0.00 0.39 0.00 91 1011.0
20210613051005 55 0 0.0 0.0 0.00 0.39 0.00 90 1011.0
20210613050504 56 0 0.0 0.0 0.00 0.39 0.00 90 1010.9
20210613050005 56 0 0.0 0.0 0.00 0.39 0.00 90 1010.8
20210613045504 56 0 0.0 0.0 0.00 0.39 0.00 90 1010.9
20210613045005 56 0 0.0 0.0 0.00 0.39 0.00 90 1010.8
20210613044504 56 0 0.0 0.0 0.00 0.39 0.00 90 1010.7
20210613044004 56 0 0.0 0.0 0.00 0.39 0.00 90 1010.8
20210613043504 57 0 0.0 0.0 0.00 0.39 0.00 90 1010.8
20210613043004 57 0 0.0 0.0 0.00 0.39 0.00 89 1010.8
20210613042505 57 0 0.0 0.0 0.00 0.40 0.00 89 1010.8
20210613042004 57 0 0.0 0.0 0.00 0.40 0.00 89 1010.8
20210613041504 57 0 0.0 0.0 0.00 0.40 0.00 89 1010.7
20210613041004 58 0 0.0 0.0 0.00 0.41 0.00 89 1010.7
20210613040505 58 0 0.0 0.0 0.00 0.41 0.00 89 1010.8
20210613040007 58 0 0.0 0.0 0.00 0.41 0.00 88 1010.8
20210613035505 58 0 0.0 0.0 0.00 0.41 0.41 88 1010.8
20210613035004 58 0 0.0 0.0 0.00 0.42 0.41 88 1010.7
20210613034504 59 0 0.0 0.0 0.00 0.42 0.41 88 1010.8
20210613034004 59 0 0.0 0.0 0.00 0.43 0.41 88 1010.8
20210613033505 59 0 0.0 0.0 0.00 0.43 0.41 87 1010.7
20210613033004 59 0 0.0 0.0 0.00 0.43 0.41 87 1010.7
20210613032504 59 0 0.0 0.0 0.00 0.43 0.41 87 1010.7
20210613032005 60 0 0.0 0.0 0.00 0.43 0.41 87 1010.7
20210613031505 60 0 0.0 0.0 0.00 0.43 0.41 87 1010.6
20210613031004 60 0 0.0 0.0 0.00 0.44 0.41 87 1010.5
20210613030504 60 0 0.0 0.0 0.00 0.44 0.41 87 1010.5
20210613030005 60 0 0.0 0.0 0.00 0.44 0.41 87 1010.5
20210613025504 60 0 0.0 0.0 0.00 0.44 0.41 86 1010.4
20210613025004 60 0 0.0 0.0 0.00 0.44 0.41 86 1010.5
20210613024504 60 0 0.0 0.0 0.00 0.44 0.41 86 1010.4
20210613024005 60 0 0.0 0.0 0.00 0.44 0.41 86 1010.4
20210613023505 61 0 0.0 0.0 0.00 0.44 0.41 85 1010.4
20210613023004 61 0 0.0 0.0 0.00 0.44 0.41 85 1010.4
20210613022505 61 0 0.0 0.0 0.00 0.44 0.41 85 1010.4
20210613022005 61 0 0.0 0.0 0.00 0.44 0.41 84 1010.3
20210613021505 61 0 0.0 0.0 0.00 0.44 0.41 84 1010.3
20210613021004 61 0 0.0 0.0 0.00 0.44 0.41 84 1010.3
20210613020504 62 0 0.0 0.0 0.00 0.44 0.41 84 1010.3
20210613020004 62 0 0.0 0.0 0.00 0.44 0.41 83 1010.3
20210613015505 62 0 0.0 0.0 0.00 0.44 0.41 83 1010.2
20210613015005 62 0 0.0 0.0 0.00 0.44 0.41 82 1010.2
20210613014505 62 0 0.0 0.0 0.00 0.44 0.41 82 1010.1
20210613014005 62 0 0.0 0.0 0.00 0.44 0.41 83 1010.1
20210613013505 63 0 0.0 0.0 0.00 0.44 0.41 82 1009.9
20210613013005 63 0 0.0 0.0 0.00 0.44 0.41 81 1010.1
20210613012504 63 0 0.0 0.0 0.00 0.44 0.41 81 1009.9
20210613012004 64 0 0.0 0.0 0.00 0.44 0.41 80 1009.9
20210613011504 64 0 0.0 0.0 0.00 0.44 0.41 80 1009.8
20210613011004 64 0 0.0 0.0 0.00 0.44 0.41 79 1009.7
20210613010504 64 0 0.0 0.0 0.00 0.44 0.41 79 1009.6
20210613010005 65 0 0.0 0.0 0.00 0.44 0.41 77 1009.6
20210613005505 65 0 0.0 0.0 0.00 0.44 0.41 77 1009.6
20210613005004 65 0 0.0 0.0 0.00 0.44 0.41 76 1009.5
20210613004505 66 0 0.0 0.0 0.00 0.44 0.41 75 1009.4
20210613004005 66 0 0.0 0.0 0.00 0.44 0.41 73 1009.4
20210613003505 67 0 0.0 0.0 0.00 0.44 0.41 72 1009.3
20210613003005 67 0 0.0 0.0 0.00 0.44 0.41 72 1009.3
20210613002505 68 0 0.0 0.0 0.00 0.44 0.41 71 1009.2
20210613002005 69 0 0.0 0.0 0.00 0.44 0.41 69 1009.3
20210613001505 69 0 0.0 0.0 0.00 0.44 0.41 68 1009.3
20210613001005 70 0 0.0 0.0 0.00 0.44 0.41 67 1009.2
20210613000505 70 194 0.0 0.9 0.00 0.44 0.41 65 1009.2
20210613000005 71 193 0.0 4.3 0.00 0.44 0.41 65 1009.2
20210612235505 71 193 0.9 5.2 0.00 0.44 0.41 64 1009.2
20210612235005 71 194 0.9 5.2 0.00 0.44 0.41 62 1009.2
20210612234505 71 199 0.0 4.3 0.00 0.44 0.41 61 1009.2
20210612234005 72 186 0.0 2.6 0.00 0.44 0.41 61 1009.1
20210612233505 72 151 0.0 2.6 0.00 0.44 0.41 60 1009.2
20210612233005 72 157 0.0 4.3 0.00 0.44 0.41 60 1009.1
20210612232505 72 163 1.7 6.1 0.00 0.44 0.41 60 1009.1
20210612232005 73 168 1.7 7.0 0.00 0.44 0.41 59 1009.1